Flag for Portugal Weather past 2 weeks in Porto, Portugal

Now
37 °F

Clear.


Feels Like: 37 °F
Forecast: 40 / 55 °F
Wind: 2 mph from North

Location: Porto / Pedras Rubras

Current Time: Jan 28, 2015 at 7:19:24 AM

Latest Report: Jan 28, 2015 at 6:30 AM


Visibility: 5 mi

Pressure: 30.36 "Hg

Humidity: 100%

Dew point: 37 °F

Location of PortoLocation

Historic Weather in Porto — Graph

°F

Porto temperature yesterday

Maximum temperature yesterday: 57 °F (at 12:30 PM)
Minimum temperature yesterday: 36 °F (at 6:30 AM)
Average temperature yesterday: 46 °F

Past Weeks' High & Low Weather Summary

 TemperatureHumidityPressure
High59 °F (Jan 24, 3:00 PM)100% (Jan 13, 2:30 PM)30.48 "Hg (Jan 13, 2:30 PM)
Low34 °F (Jan 26, 5:00 AM)55% (Jan 27, 12:30 PM)29.77 "Hg (Jan 18, 3:30 AM)
Average47 °F89%30.19 "Hg
* Reported Jan 13 6:00 AM — Jan 28 6:00 AM, Porto, Weather by CustomWeather, © 2014

Note: Actual official high and low records may vary slightly from our data, if they occured in-between our weather recording intervals... More about our weather records

Advertising

Porto weather history for previous 24 hours

 ConditionsComfort  
Time TempWeatherWind HumidityBarometerVisibility
6:00 AM
Jan 28
37 °FClear.3 mph100%30.36 "Hg4 mi
5:30 AM37 °FFog.3 mph100%30.36 "Hg2 mi
5:00 AM37 °FFog.5 mph100%30.36 "Hg1 mi
4:30 AM37 °FClear.1 mph100%30.36 "Hg4 mi
4:00 AM36 °FPassing clouds.No wind100%30.36 "Hg6 mi
3:30 AM39 °FClear.1 mph100%30.36 "Hg6 mi
3:00 AM37 °FClear.5 mph100%30.39 "Hg5 mi
2:30 AM41 °FPassing clouds.3 mph100%30.39 "Hg5 mi
2:00 AM41 °FPassing clouds.No wind100%30.39 "Hg4 mi
1:30 AM37 °FClear.2 mph100%30.39 "Hg4 mi
1:00 AM41 °FClear.1 mph100%30.39 "Hg4 mi
12:30 AM43 °FClear.1 mph100%30.39 "Hg5 mi
12:00 AM45 °FClear.2 mph100%30.39 "Hg5 mi
11:30 PM
Jan 27
43 °FFog.3 mph100%30.39 "Hg3 mi
11:00 PM45 °FPassing clouds.3 mph100%30.39 "Hg5 mi
10:30 PM41 °FPassing clouds.3 mph100%30.39 "Hg4 mi
10:00 PM46 °FPassing clouds.3 mph100%30.42 "Hg4 mi
9:50 PM46 °FPassing clouds.3 mph100%30.42 "Hg4 mi
9:00 PM46 °FClear.3 mph100%30.39 "Hg5 mi
8:30 PM45 °FFog.2 mph100%30.42 "Hg2 mi
8:00 PM50 °FClear.3 mph94%30.42 "Hg6 mi
7:30 PM50 °FPassing clouds.5 mph94%30.42 "HgN/A
7:00 PM48 °FClear.3 mph94%30.42 "Hg4 mi
6:30 PM52 °FClear.7 mph88%30.42 "Hg10 mi
6:00 PM52 °FClear.7 mph94%30.42 "Hg10 mi
5:30 PM54 °FSunny.7 mph82%30.39 "Hg10 mi
5:00 PM55 °FSunny.7 mph77%30.42 "Hg10 mi
4:30 PM55 °FSunny.7 mph72%30.42 "Hg10 mi
4:00 PM55 °FSunny.8 mph63%30.42 "Hg10 mi
3:30 PM55 °FSunny.7 mph67%30.42 "Hg10 mi
3:00 PM55 °FPassing clouds.5 mph67%30.42 "HgN/A
2:30 PM55 °FPassing clouds.6 mph67%30.42 "HgN/A
2:00 PM55 °FPassing clouds.5 mph67%30.42 "HgN/A
1:30 PM55 °FPassing clouds.6 mph59%30.45 "HgN/A
1:00 PM55 °FSunny.2 mph59%30.45 "Hg10 mi
12:30 PM57 °FSunny.2 mph55%30.45 "Hg10 mi
12:00 PM54 °FPassing clouds.3 mph67%30.48 "HgN/A
11:30 AM52 °FSunny.2 mph72%30.48 "Hg10 mi
11:00 AM52 °FSunny.2 mph67%30.48 "Hg10 mi
10:30 AM50 °FSunny.3 mph71%30.48 "Hg10 mi
10:00 AM48 °FPassing clouds.3 mph76%30.48 "HgN/A
9:30 AM45 °FPassing clouds.5 mph87%30.48 "HgN/A
9:03 AM43 °FSunny.2 mph87%30.48 "Hg10 mi
9:00 AM39 °FPassing clouds.3 mph93%30.48 "HgN/A
8:30 AM39 °FPassing clouds.3 mph93%30.45 "HgN/A
8:00 AM36 °FClear.3 mph100%30.45 "Hg6 mi
7:30 AM37 °FClear.3 mph100%30.45 "Hg6 mi
7:00 AM37 °FClear.3 mph93%30.45 "Hg4 mi
Weather by CustomWeather, © 2014

See weather overviewHow to use our weather pages